POISK

Last updated on Fri Sep 04 2026 00:02:05 GMT+0000 (Coordinated Universal Time)

1 36086U 09060A 26246.43400286 .00003837 00000+0 77837-4 0 9991 2 36086 51.6311 272.8190 0004986 103.0100 257.1445 15.48978938584628
UTC large
Height (km)
Speed (km/s)
/
Latitude / Longitude
Inclination (degrees)
Orbital Period (minutes)
Azimuth
Elevation
Range (km)
Doppler Factor

Next 0 passes for location: London (51.5072 / 0.1276)

No passes found over London.
POISK